Regional Weather Roundup
Issued by NWS

Home | Current Version | Previous Version | Text Only | Print | Product List | Glossary On
Versions: 1 2 3 4 5 6 7 8 9 10 11 12 13 14 15 16 17 18 19 20 21 22 23 24 25 26 27 28 29 30 31 32 33 34 35 36 37 38 39 40 41 42 43 44 45 46 47 48 49 50
000
ASUS43 KLSX 290710
RWRMO

WEATHER SUMMARY FOR MISSOURI
NATIONAL WEATHER SERVICE SPRINGFIELD MO
200 AM CDT MON AUG 29 2016

NOTE: "FAIR" INDICATES FEW OR NO CLOUDS BELOW 12,000 FEET WITH NO
       SIGNIFICANT WEATHER AND/OR OBSTRUCTIONS TO VISIBILITY.
       CURRENT SKY AND/OR WEATHER CONDITIONS ARE NOT AVAILABLE FOR
       CHILLICOTHE AND FARMINGTON.

MOZ001>031-035>038-043-044-053-054-290800-
...NORTHERN AND WESTERN MISSOURI...

CITY           SKY/WX    TMP DP  RH WIND       PRES   REMARKS
KANSAS CTY INT MOCLDY    72  67  84 E6        30.12S
KANSAS C DTWN  CLEAR     73  70  90 NE5       30.10F
LEE`S SUMMIT   CLEAR     72  70  93 SE7       30.12F
ST JOSEPH      PTCLDY    70  68  93 CALM      30.12R
KIRKSVILLE     PTCLDY    73  70  90 E6        30.16F

$$
MOZ066>068-077>081-088>096-101>105-290800-
...SOUTHWEST MISSOURI...

CITY           SKY/WX    TMP DP  RH WIND       PRES   REMARKS
SPRINGFIELD    CLEAR     74  68  81 SE6       30.13F
JOPLIN         PTCLDY    74  70  87 SE6       30.12S
BRANSON        CLEAR     72  70  94 CALM      30.15S

$$
MOZ032>034-039>042-045>050-055>058-069>072-290800-
...CENTRAL MISSOURI...

CITY           SKY/WX    TMP DP  RH WIND       PRES   REMARKS
COLUMBIA       CLEAR     74  72  93 E6        30.14F
JEFFERSON CITY CLEAR     74  72  93 CALM      30.13S
ROLLA          CLEAR     73  71  93 SE6       30.14F
SEDALIA        CLEAR     72  69  90 E3        30.14F
WHITEMAN AFB   PTCLDY    73  73 100 E6        30.11F
OSAGE BEACH    CLEAR     73  71  93 CALM      30.14F

$$
MOZ051-052-059>065-290800-
...EAST CENTRAL MISSOURI...

CITY           SKY/WX    TMP DP  RH WIND       PRES   REMARKS
ST LOUIS INTL  CLEAR     80  73  79 E3        30.14F
SPIRIT OF STL  CLEAR     75  73  93 CALM      30.13S
ST CHARLES     CLEAR     76  75  97 E5        30.13S

$$
MOZ072>076-082>087-097>100-106>115-290800-
...SOUTH CENTRAL AND SOUTHEAST MISSOURI...

CITY           SKY/WX    TMP DP  RH WIND       PRES   REMARKS
CAPE GIRARDEAU CLEAR     73  71  93 E3        30.11S FOG
FARMINGTON     CLEAR     72  72 100 CALM      30.15F FOG
POPLAR BLUFF   CLEAR     76  73  91 N3        30.10F
WEST PLAINS    CLEAR     72  69  90 NE3       30.16F

$$




USA.gov is the U.S. government's official web portal to all federal, state and local government web resources and services.